This is the latest recevied weather packets stored in our database for station/object K6CED. If no packets are shown the sender has not sent any weather packets the latest 10 day(s).
| Time | Temp. | Humidity | Pressure | Rain* | Wind** | Luminosity | Snow |
|---|---|---|---|---|---|---|---|
| 1778164696 | 13.33° C | 85% | 1018.8 hPa | 0 mm | - | 154 W/m² | - |
| 1778164394 | 12.78° C | 86% | 1018.7 hPa | 0 mm | - | 64 W/m² | - |
| 1778164089 | 12.22° C | 87% | 1018.9 hPa | 0 mm | - | 49 W/m² | - |
| 1778163786 | 12.22° C | 88% | 1018.8 hPa | 0 mm | - | 46 W/m² | - |
| 1778163483 | 11.67° C | 89% | 1018.6 hPa | 0 mm | - | 45 W/m² | - |
| 1778163180 | 11.67° C | 89% | 1018.8 hPa | 0 mm | - | 45 W/m² | - |
| 1778162876 | 11.11° C | 89% | 1018.8 hPa | 0 mm | - | 41 W/m² | - |
| 1778162574 | 11.11° C | 89% | 1018.7 hPa | 0 mm | - | 39 W/m² | - |
| 1778162271 | 10.56° C | 89% | 1018.6 hPa | 0 mm | - | 37 W/m² | - |
| 1778161968 | 10.56° C | 89% | 1018.6 hPa | 0 mm | - | 36 W/m² | - |
| 1778161663 | 10.56° C | 90% | 1018.3 hPa | 0 mm | - | 36 W/m² | - |
| 1778161360 | 10° C | 93% | 1018.5 hPa | 0 mm | - | 51 W/m² | - |
| 1778161057 | 9.44° C | 93% | 1018.4 hPa | 0 mm | - | 29 W/m² | - |
| 1778160753 | 9.44° C | 94% | 1018.3 hPa | 0 mm | - | 28 W/m² | - |
| 1778160451 | 8.89° C | 94% | 1018.4 hPa | 0 mm | - | 23 W/m² | - |
| 1778160148 | 8.89° C | 94% | 1018.2 hPa | 0 mm | - | 20 W/m² | - |
| 1778159844 | 8.89° C | 94% | 1018.5 hPa | 0 mm | - | 17 W/m² | - |
| 1778159542 | 8.89° C | 94% | 1018.3 hPa | 0 mm | - | 14 W/m² | - |
| 1778159238 | 9.44° C | 94% | 1018.4 hPa | 0 mm | - | 10 W/m² | - |
| 1778158936 | 10° C | 94% | 1018.2 hPa | 0 mm | - | 7 W/m² | - |
| 1778158635 | 10° C | 94% | 1018.4 hPa | 0 mm | - | 4 W/m² | - |
| 1778158332 | 10° C | 94% | 1018.1 hPa | 0 mm | - | 2 W/m² | - |
| 1778158028 | 9.44° C | 94% | 1018.3 hPa | 0 mm | - | 1 W/m² | - |
| 1778157726 | 9.44° C | 94% | 1018.2 hPa | 0 mm | - | 0 W/m² | - |
| 1778157424 | 9.44° C | 94% | 1018.2 hPa | 0 mm | - | 0 W/m² | - |
* Rain latest hour (hover to see other rain measurements)
** Current wind speed in m/s (hover to see current wind gust speed)